CW0630 Weather Reports


time (UTC)temp
C
wind
direction
speed
KPH
gust
KPH
rain 1hr
cm
rain 24hr
cm
rain mn
cm
humidity
%
barometer
mb
20220124101029 -4 217 1.6 1.6 0.00 0.00 0.00 84 1011.1
20220124091016 -3 217 1.6 1.6 0.00 0.00 0.00 81 1010.3
20220124081017 -2 217 1.6 4.8 0.00 0.00 0.00 77 1010.4
20220124071029 -2 243 0.0 0.0 0.00 0.00 0.00 74 1009.9
20220124061012 -1 236 0.0 1.6 0.00 0.00 0.00 75 1009.8
20220124051023 -1 215 3.2 3.2 0.00 0.00 0.00 71 1009.7
20220124041026 0 187 4.8 6.4 0.00 0.00 0.00 69 1009.3
20220124031020 0 224 1.6 1.6 0.00 0.00 0.00 66 1009.2
20220124021017 0 198 4.8 4.8 0.00 0.00 0.00 63 1009.0
20220124011019 2 211 4.8 4.8 0.00 0.00 0.00 56 1009.3
20220124001017 4 196 6.4 6.4 0.00 0.00 0.00 49 1008.8
20220123231029 3 239 3.2 3.2 0.00 0.00 0.00 50 1009.0
20220123221028 5 204 8.0 8.0 0.00 0.00 0.00 44 1008.8
20220123211025 6 191 3.2 6.4 0.00 0.00 0.00 44 1009.3
20220123201020 7 257 9.7 9.7 0.00 0.00 0.00 38 1009.8
20220123191014 6 229 8.0 8.0 0.00 0.00 0.00 41 1010.9
20220123181016 6 259 0.0 8.0 0.00 0.00 0.00 44 1011.5
20220123171026 5 181 0.0 6.4 0.00 0.00 0.00 44 1013.1
20220123161015 4 183 0.0 4.8 0.00 0.00 0.00 44 1015.1
20220123151032 2 158 4.8 4.8 0.00 0.00 0.00 45 1015.9
20220123141023 0 175 0.0 0.0 0.00 0.00 0.00 49 1016.7
20220123131018 -6 234 0.0 0.0 0.00 0.00 0.00 75 1017.2
20220123121019 -6 234 0.0 0.0 0.00 0.00 0.00 73 1017.0
20220123111026 -5 234 0.0 0.0 0.00 0.00 0.00 67 1016.2